#timestamp,LO_Frequency,Hit,StdDev 
1636401615.1,286046998.7,N
1636401635.9,286046998.6,N
1636401655.7,286046998.1,N
1636401675.5,286047000.7,N
1636401695.4,286047000.9,N
1636401715.2,286046998.6,N
1636401735.0,286046999.2,N
1636401735.9,286046999.2,N
1636401755.8,286046999.3,N
1636401775.6,286046999.1,N
1636401795.5,286046998.8,N
1636401815.3,286046999.0,N
1636401835.1,286046997.8,N
1636401855.9,286046997.1,Y
1636401875.7,286046998.8,P
1636401895.6,286047000.8,P
1636401915.4,286047000.5,N
1636401935.2,286047001.2,N
1636401955.1,286047000.4,N
1636401956.0,286047000.4,N
1636401975.8,286047000.9,N
1636401995.6,286047000.8,N
1636402015.5,286047000.8,N
1636402035.3,286046998.5,N
1636402055.2,286047000.8,N
1636402075.9,286047000.6,N
1636402095.7,286046998.4,N
1636402115.6,286047001.1,N
1636402135.4,286047000.3,N
1636402155.2,286047000.5,N
1636402175.1,286047002.8,Y
1636402176.0,286047002.8,P
1636402195.8,286047002.2,N
1636402215.7,286047002.8,N
1636402235.5,286047002.7,N
1636402255.3,286047000.4,N
1636402275.2,286047001.2,N
1636402295.0,286046998.9,N
1636402295.9,286046998.9,N
1636402315.8,286046998.8,N
1636402335.6,286046998.5,N
1636402355.4,286046998.8,N
1636402375.3,286047001.2,N
1636402395.1,286046998.9,N
1636402415.8,286046998.4,N
1636402435.7,286047000.2,N
1636402455.5,286047001.0,N
1636402475.4,286046999.9,N
1636402495.2,286047001.1,N
1636402515.0,286046998.6,N
1636402515.9,286046998.6,N
1636402535.8,286047000.7,N
1636402555.6,286047000.3,N
1636402575.4,286047000.9,N
1636402595.3,286046998.9,N
1636402615.1,286046998.7,N
1636402635.9,286046999.6,N
1636402655.7,286046998.8,N
1636402675.5,286046999.0,N
1636402695.4,286046996.5,N
1636402715.2,286046999.6,N
1636402735.0,286046997.8,N
1636402735.9,286046997.8,N
1636402755.8,286046997.5,N
1636402775.6,286046997.6,N
1636402795.5,286046997.7,N
1636402815.3,286046995.5,Y
1636402835.1,286046997.3,P
1636402855.9,286046997.1,P
1636402875.7,286046997.7,N
1636402895.5,286046998.0,N
1636402915.4,286046996.0,Y
1636402935.2,286046998.9,P
1636402955.1,286046999.4,N
1636402956.0,286046999.4,N
1636402975.8,286046997.0,Y
1636402995.9,286047000.3,P
1636403015.7,286047000.7,N
1636403035.5,286047001.2,N
1636403055.4,286046999.9,N
1636403075.2,286047000.9,N
1636403095.1,286047000.8,N
1636403096.0,286047000.8,N
1636403115.8,286047000.0,N
1636403135.6,286047000.6,N
1636403155.5,286047000.6,N
1636403175.3,286047000.6,N
1636403195.1,286046998.5,N
1636403215.9,286046999.0,N
1636403235.7,286046998.5,N
1636403255.6,286046998.2,N
1636403275.4,286046999.1,N
1636403295.2,286046998.8,N
1636403315.1,286046999.4,N
1636403316.0,286046999.4,N
1636403335.8,286046999.3,N
1636403355.6,286046998.9,N
1636403375.5,286047000.8,N
1636403395.3,286047000.2,N
1636403415.2,286047001.0,N
1636403435.9,286047000.7,N
1636403455.7,286047000.1,N
1636403475.6,286047000.4,N
1636403495.4,286047001.0,N
1636403515.2,286047000.6,N
1636403535.1,286047001.2,N
1636403536.0,286047001.2,N
1636403555.8,286046998.2,N
1636403575.7,286046998.9,N
1636403595.5,286047001.2,N
1636403615.3,286047002.3,N
1636403635.2,286047002.3,N
1636403655.0,286047002.0,N
1636403655.9,286047002.0,N
1636403675.7,286046999.7,N
1636403695.6,286047001.7,N
1636403715.4,286047002.5,N
1636403735.3,286047002.7,N
1636403755.1,286047002.5,N
1636403756.0,286047002.5,N
1636403775.8,286047002.2,N
1636403795.7,286047001.3,N
1636403815.5,286047002.7,N
1636403835.4,286047002.2,N
1636403855.2,286047002.2,N
1636403875.0,286047002.5,N
1636403875.9,286047002.5,N
1636403895.8,286047002.6,N
1636403915.6,286047002.5,N
1636403935.5,286047000.0,N
1636403955.3,286047000.0,N
1636403975.1,286047002.4,N
1636403995.9,286047002.4,N
1636404015.7,286047000.1,N
1636404035.5,286047000.3,N
1636404055.4,286047000.1,N
1636404075.2,286047002.5,N
1636404095.1,286047002.4,N
1636404096.0,286047002.4,N
1636404115.8,286047001.4,N
1636404135.6,286047004.0,Y
1636404155.5,286046999.9,P
1636404175.3,286047002.3,N
1636404195.2,286047001.9,N
1636404215.9,286046999.7,N
1636404235.7,286047002.5,N
1636404255.6,286046999.8,N
1636404275.4,286047000.4,N
1636404295.3,286047000.4,N
1636404315.1,286047000.5,N
1636404316.0,286047000.5,N
1636404335.8,286047002.6,N
1636404355.7,286047002.4,N
1636404375.5,286047000.2,N
1636404395.3,286047000.6,N
1636404415.2,286047002.8,N
1636404435.0,286047002.8,N
1636404435.9,286047002.8,N
1636404455.8,286047001.9,N
1636404475.6,286047002.4,N
1636404495.4,286047001.6,N
1636404515.3,286046999.8,N
1636404535.1,286046999.8,N
1636404555.8,286047002.6,N
1636404575.7,286047002.7,N
1636404595.5,286047002.7,N
1636404615.4,286047001.4,N
1636404635.2,286047001.9,N
1636404655.0,286047004.1,Y
1636404655.9,286047004.1,P
1636404675.8,286046999.9,N
1636404695.6,286046999.9,N
1636404715.5,286047002.5,N
1636404735.3,286046999.7,N
1636404755.1,286047002.7,N
1636404775.9,286046999.7,N
1636404795.7,286047002.7,N
1636404815.5,286047002.3,N
1636404835.4,286047002.1,N
1636404855.2,286046999.8,N
1636404875.1,286047002.3,N
1636404876.0,286047002.3,N
1636404895.8,286047002.7,N
1636404915.6,286047002.6,N
1636404935.5,286046999.7,N
1636404955.3,286047002.8,N
1636404975.2,286047002.7,N
1636404995.9,286046999.9,N
1636405015.7,286047002.2,N
1636405035.6,286047001.6,N
1636405055.4,286047001.9,N
1636405075.2,286047002.5,N
1636405095.1,286047002.5,N
1636405096.0,286047002.5,N
1636405115.8,286047002.7,N
1636405135.7,286047002.1,N
1636405155.5,286046999.8,N
1636405175.3,286047000.4,N
1636405195.2,286046999.9,N
